Download List

Sponsored link

Project Description

Waterfox is a high performance browser based on the Mozilla Firefox source code. Made specifically for 64-Bit systems, Waterfox has one thing in mind: speed.

PLEASE CHECK THE WATERFOX WEBSITE BEFORE YOU DOWNLOAD FROM HERE. IT CONTAINS IMPORTANT INFORMATION YOU SHOULD KNOW.

System Requirements

System requirement is not defined

Download Package list

Latest 5 files
Name Size Date Download count
Waterfox 38.0 Setup.exe 64.7 MB 2015-05-12 22:25 1409
WaterfoxPortable_38.0.0_English.paf.exe 67.1 MB 2015-05-12 22:17 107
Waterfox 36.0 Setup.dmg 56.9 MB 2015-03-02 10:19 200
WaterfoxPortable_36.0.0_English.paf.exe 58.4 MB 2015-03-01 03:41 61
Waterfox 36.0 Setup.exe 58.8 MB 2015-03-01 03:40 303
All Files
Waterfox 38.0 Setup.exe64.7 MB2015-05-12 22:251409
WaterfoxPortable_38.0.0_English.paf.exe67.1 MB2015-05-12 22:17107
Waterfox 36.0 Setup.dmg56.9 MB2015-03-02 10:19200
WaterfoxPortable_36.0.0_English.paf.exe58.4 MB2015-03-01 03:4161
Waterfox 36.0 Setup.exe58.8 MB2015-03-01 03:40303
WaterfoxPortable_35.0.1_English.paf.exe59.7 MB2015-02-14 22:0943
Waterfox 35.0.1 Setup.exe57.5 MB2015-02-10 07:53251
Waterfox 34.0.1 Setup.exe57.3 MB2014-12-18 04:19320
Waterfox 34.0 Setup.exe57.4 MB2014-12-15 00:28104
Waterfox 34.0 SetupSigned.mpkg.zip56.8 MB2014-12-13 10:1828
Waterfox 32.0.3 Setup.exe45.5 MB2014-10-08 10:54375
update
waterfox
waterfox-32.0.3.en-US.win64.complete.mar59.0 MB2014-10-08 10:5351
waterfox-32.0.en-US.win64.complete.mar59.0 MB2014-09-06 00:4829
waterfox-31.0.en-US.win64.complete.mar56.2 MB2014-07-29 01:03101
waterfox-30.0.en-US.win64.complete.mar48.0 MB2014-07-09 22:3011
waterfox-28.0.en-US.win64.complete.mar42.2 MB2014-04-08 00:22128
waterfox-27.0.2.en-US.win64.complete.mar35.5 MB2014-03-05 22:2015
waterfox-26.0.en-US.win64.complete.mar35.5 MB2013-12-29 23:5530
waterfox-25.0.en-US.win64-x86_64.complete.mar31.1 MB2013-11-13 05:19123
language
32.0
pt-PT.xpi373.9 KB2014-09-08 18:177
rm.xpi387.8 KB2014-09-08 18:171
ro.xpi427.6 KB2014-09-08 18:173
ru.xpi354.8 KB2014-09-08 18:177
si.xpi451.1 KB2014-09-08 18:174
sk.xpi400.9 KB2014-09-08 18:172
sl.xpi375.2 KB2014-09-08 18:173
son.xpi382.2 KB2014-09-08 18:172
sq.xpi418.1 KB2014-09-08 18:172
sr.xpi413.1 KB2014-09-08 18:174
sv-SE.xpi386.3 KB2014-09-08 18:174
ta.xpi440.2 KB2014-09-08 18:172
te.xpi456.6 KB2014-09-08 18:174
th.xpi467.9 KB2014-09-08 18:175
tr.xpi404.4 KB2014-09-08 18:177
uk.xpi417.4 KB2014-09-08 18:175
vi.xpi400.5 KB2014-09-08 18:173
xh.xpi387.5 KB2014-09-08 18:175
zh-CN.xpi406.8 KB2014-09-08 18:1726
zh-TW.xpi400.0 KB2014-09-08 18:1719
zu.xpi421.5 KB2014-09-08 18:1745
id.xpi366.1 KB2014-09-08 18:177
is.xpi413.7 KB2014-09-08 18:175
it.xpi317.4 KB2014-09-08 18:176
ja.xpi408.4 KB2014-09-08 18:171001
kk.xpi426.7 KB2014-09-08 18:172
km.xpi499.0 KB2014-09-08 18:172
kn.xpi452.1 KB2014-09-08 18:172
ko.xpi390.3 KB2014-09-08 18:172
ku.xpi408.9 KB2014-09-08 18:171
lij.xpi374.6 KB2014-09-08 18:171
lt.xpi421.9 KB2014-09-08 18:174
lv.xpi385.3 KB2014-09-08 18:175
mai.xpi436.1 KB2014-09-08 18:173
mk.xpi463.0 KB2014-09-08 18:171
ml.xpi460.6 KB2014-09-08 18:172
mr.xpi444.4 KB2014-09-08 18:171
ms.xpi424.4 KB2014-09-08 18:171
nb-NO.xpi379.6 KB2014-09-08 18:171
nl.xpi378.4 KB2014-09-08 18:1717
nn-NO.xpi376.1 KB2014-09-08 18:171
or.xpi455.5 KB2014-09-08 18:170
pa-IN.xpi429.3 KB2014-09-08 18:170
pl.xpi359.6 KB2014-09-08 18:1756
pt-BR.xpi393.2 KB2014-09-08 18:172
et.xpi378.0 KB2014-09-08 18:170
eu.xpi399.8 KB2014-09-08 18:171
fa.xpi448.4 KB2014-09-08 18:172
ff.xpi388.1 KB2014-09-08 18:174
fi.xpi380.0 KB2014-09-08 18:171
fr.xpi393.9 KB2014-09-08 18:1715
fy-NL.xpi389.4 KB2014-09-08 18:170
ga-IE.xpi399.0 KB2014-09-08 18:170
gd.xpi389.9 KB2014-09-08 18:171
gl.xpi379.3 KB2014-09-08 18:175
gu-IN.xpi417.9 KB2014-09-08 18:170
he.xpi415.7 KB2014-09-08 18:171
hi-IN.xpi433.3 KB2014-09-08 18:170
hr.xpi413.0 KB2014-09-08 18:173
hsb.xpi400.3 KB2014-09-08 18:171
hu.xpi386.0 KB2014-09-08 18:176
hy-AM.xpi466.5 KB2014-09-08 18:171
da.xpi385.2 KB2014-09-08 18:171
de.xpi382.9 KB2014-09-08 18:1716
dsb.xpi402.2 KB2014-09-08 18:173
el.xpi431.0 KB2014-09-08 18:172
en-GB.xpi378.2 KB2014-09-08 18:1711
en-US.xpi409.7 KB2014-09-08 18:1787
en-ZA.xpi377.8 KB2014-09-08 18:171
eo.xpi418.3 KB2014-09-08 18:171
es-AR.xpi387.8 KB2014-09-08 18:174
es-CL.xpi329.7 KB2014-09-08 18:170
es-ES.xpi322.7 KB2014-09-08 18:174
es-MX.xpi390.3 KB2014-09-08 18:176
cy.xpi378.0 KB2014-09-08 18:171
csb.xpi372.4 KB2014-09-08 18:176
cs.xpi378.5 KB2014-09-08 18:1772
ca.xpi391.1 KB2014-09-08 18:174
bs.xpi417.2 KB2014-09-08 18:171
br.xpi377.0 KB2014-09-08 18:174
bn-IN.xpi454.7 KB2014-09-08 18:171
bn-BD.xpi466.3 KB2014-09-08 18:172
bg.xpi426.2 KB2014-09-08 18:1715
be.xpi369.5 KB2014-09-08 18:171
ast.xpi333.9 KB2014-09-08 18:171
as.xpi440.6 KB2014-09-08 18:171
ar.xpi447.1 KB2014-09-08 18:173
an.xpi394.4 KB2014-09-08 18:171
af.xpi419.8 KB2014-09-08 18:171
ach.xpi415.5 KB2014-09-08 18:173
31.0
sw.xpi396.4 KB2014-07-29 00:491
ta.xpi420.2 KB2014-07-29 00:491
te.xpi435.8 KB2014-07-29 00:490
th.xpi435.4 KB2014-07-29 00:492
tr.xpi372.7 KB2014-07-29 00:494
uk.xpi395.7 KB2014-07-29 00:491
vi.xpi381.3 KB2014-07-29 00:492
xh.xpi366.8 KB2014-07-29 00:495
zh-CN.xpi386.9 KB2014-07-29 00:4933
zh-TW.xpi380.2 KB2014-07-29 00:497
zu.xpi389.2 KB2014-07-29 00:4913
nn-NO.xpi358.4 KB2014-07-29 00:491
or.xpi436.1 KB2014-07-29 00:491
pa-IN.xpi410.4 KB2014-07-29 00:492
pl.xpi342.6 KB2014-07-29 00:4910
pt-BR.xpi373.5 KB2014-07-29 00:494
pt-PT.xpi354.8 KB2014-07-29 00:493
rm.xpi367.0 KB2014-07-29 00:490
ro.xpi394.2 KB2014-07-29 00:495
ru.xpi336.8 KB2014-07-29 00:4910
si.xpi420.4 KB2014-07-29 00:491
sk.xpi369.1 KB2014-07-29 00:493
sl.xpi355.0 KB2014-07-29 00:494
son.xpi362.9 KB2014-07-29 00:493
sq.xpi387.2 KB2014-07-29 00:491
sr.xpi393.9 KB2014-07-29 00:491
sv-SE.xpi367.0 KB2014-07-29 00:492
ja.xpi397.5 KB2014-07-29 00:49118
kk.xpi406.7 KB2014-07-29 00:491
km.xpi467.2 KB2014-07-29 00:491
kn.xpi431.7 KB2014-07-29 00:491
ko.xpi370.1 KB2014-07-29 00:493
ku.xpi393.8 KB2014-07-29 00:492
lij.xpi353.5 KB2014-07-29 00:493
lt.xpi390.5 KB2014-07-29 00:494
lv.xpi366.2 KB2014-07-29 00:491
mai.xpi415.9 KB2014-07-29 00:490
mk.xpi430.7 KB2014-07-29 00:490
ml.xpi440.3 KB2014-07-29 00:491
mr.xpi423.0 KB2014-07-29 00:491
ms.xpi391.1 KB2014-07-29 00:492
nb-NO.xpi360.1 KB2014-07-29 00:491
nl.xpi358.8 KB2014-07-29 00:494
fi.xpi360.5 KB2014-07-29 00:481
fr.xpi373.8 KB2014-07-29 00:485
fy-NL.xpi369.9 KB2014-07-29 00:486
ga-IE.xpi377.5 KB2014-07-29 00:487
gd.xpi370.4 KB2014-07-29 00:482
gl.xpi358.6 KB2014-07-29 00:480
gu-IN.xpi395.8 KB2014-07-29 00:481
he.xpi395.1 KB2014-07-29 00:480
hi-IN.xpi412.9 KB2014-07-29 00:480
hr.xpi391.3 KB2014-07-29 00:483
hsb.xpi380.4 KB2014-07-29 00:483
hu.xpi366.1 KB2014-07-29 00:4815
hy-AM.xpi434.7 KB2014-07-29 00:480
id.xpi346.4 KB2014-07-29 00:485
is.xpi382.1 KB2014-07-29 00:480
it.xpi299.4 KB2014-07-29 00:482
cs.xpi358.6 KB2014-07-29 00:487
csb.xpi351.3 KB2014-07-29 00:482
cy.xpi358.3 KB2014-07-29 00:481
da.xpi353.6 KB2014-07-29 00:481
de.xpi362.8 KB2014-07-29 00:485
el.xpi410.2 KB2014-07-29 00:484
en-GB.xpi358.1 KB2014-07-29 00:489
en-US.xpi378.3 KB2014-07-29 00:484
en-ZA.xpi356.7 KB2014-07-29 00:480
eo.xpi386.7 KB2014-07-29 00:480
es-AR.xpi368.0 KB2014-07-29 00:481
es-CL.xpi311.6 KB2014-07-29 00:481
es-ES.xpi304.8 KB2014-07-29 00:484
es-MX.xpi370.9 KB2014-07-29 00:480
et.xpi346.4 KB2014-07-29 00:481
eu.xpi380.1 KB2014-07-29 00:482
fa.xpi427.9 KB2014-07-29 00:486
ff.xpi368.4 KB2014-07-29 00:482
be.xpi347.1 KB2014-07-29 00:480
bg.xpi406.4 KB2014-07-29 00:483
bn-BD.xpi445.6 KB2014-07-29 00:480
bn-IN.xpi434.7 KB2014-07-29 00:480
br.xpi357.4 KB2014-07-29 00:480
bs.xpi384.3 KB2014-07-29 00:481
ca.xpi371.2 KB2014-07-29 00:486
ast.xpi320.7 KB2014-07-29 00:480
as.xpi420.5 KB2014-07-29 00:481
ar.xpi415.5 KB2014-07-29 00:485
an.xpi374.6 KB2014-07-29 00:483
af.xpi387.1 KB2014-07-29 00:482
ach.xpi400.4 KB2014-07-29 00:482
30.0
sq.xpi361.3 KB2014-07-07 18:594
sr.xpi400.2 KB2014-07-07 18:591
sv-SE.xpi355.6 KB2014-07-07 18:590
ta.xpi412.0 KB2014-07-07 18:591
te.xpi422.6 KB2014-07-07 18:591
th.xpi404.0 KB2014-07-07 18:591
tr.xpi356.5 KB2014-07-07 18:595
uk.xpi387.6 KB2014-07-07 18:592
vi.xpi374.3 KB2014-07-07 18:597
xh.xpi352.0 KB2014-07-07 18:591
zh-CN.xpi376.2 KB2014-07-07 18:593
zh-TW.xpi373.2 KB2014-07-07 18:591
zu.xpi361.8 KB2014-07-07 18:592
mr.xpi400.5 KB2014-07-07 18:593
ms.xpi355.7 KB2014-07-07 18:590
nb-NO.xpi350.1 KB2014-07-07 18:590
nl.xpi348.5 KB2014-07-07 18:591
nn-NO.xpi347.4 KB2014-07-07 18:590
or.xpi418.8 KB2014-07-07 18:592
pa-IN.xpi395.3 KB2014-07-07 18:593
pl.xpi339.6 KB2014-07-07 18:591
pt-BR.xpi359.4 KB2014-07-07 18:5932
pt-PT.xpi347.2 KB2014-07-07 18:592
rm.xpi356.5 KB2014-07-07 18:592
ro.xpi384.7 KB2014-07-07 18:591
ru.xpi332.5 KB2014-07-07 18:591
si.xpi392.9 KB2014-07-07 18:593
sk.xpi362.4 KB2014-07-07 18:592
sl.xpi344.9 KB2014-07-07 18:592
son.xpi346.7 KB2014-07-07 18:591
hy-AM.xpi407.2 KB2014-07-07 18:593
id.xpi339.8 KB2014-07-07 18:591
is.xpi351.4 KB2014-07-07 18:591
it.xpi291.6 KB2014-07-07 18:591
ja.xpi390.3 KB2014-07-07 18:5935
kk.xpi395.7 KB2014-07-07 18:592
km.xpi432.1 KB2014-07-07 18:590
kn.xpi414.8 KB2014-07-07 18:591
ko.xpi360.3 KB2014-07-07 18:591
ku.xpi366.5 KB2014-07-07 18:591
lij.xpi342.0 KB2014-07-07 18:591
lt.xpi369.5 KB2014-07-07 18:595
lv.xpi345.2 KB2014-07-07 18:592
mai.xpi401.4 KB2014-07-07 18:592
mk.xpi399.3 KB2014-07-07 18:591
ml.xpi425.1 KB2014-07-07 18:591
es-ES.xpi293.6 KB2014-07-07 18:593
es-MX.xpi359.9 KB2014-07-07 18:591
et.xpi339.9 KB2014-07-07 18:590
eu.xpi355.2 KB2014-07-07 18:591
fa.xpi396.6 KB2014-07-07 18:594
ff.xpi357.2 KB2014-07-07 18:592
fi.xpi350.2 KB2014-07-07 18:591
fr.xpi362.9 KB2014-07-07 18:597
fy-NL.xpi359.4 KB2014-07-07 18:590
ga-IE.xpi366.9 KB2014-07-07 18:590
gd.xpi363.8 KB2014-07-07 18:591
gl.xpi351.7 KB2014-07-07 18:590
gu-IN.xpi384.6 KB2014-07-07 18:591
he.xpi373.5 KB2014-07-07 18:592
hi-IN.xpi402.0 KB2014-07-07 18:597
hr.xpi362.7 KB2014-07-07 18:591
hu.xpi359.5 KB2014-07-07 18:592
bs.xpi359.2 KB2014-07-07 18:591
ca.xpi357.5 KB2014-07-07 18:591
cs.xpi351.8 KB2014-07-07 18:591
csb.xpi344.1 KB2014-07-07 18:592
cy.xpi351.7 KB2014-07-07 18:591
da.xpi342.9 KB2014-07-07 18:594
de.xpi351.9 KB2014-07-07 18:595
el.xpi384.7 KB2014-07-07 18:594
en-GB.xpi340.0 KB2014-07-07 18:591
en-US.xpi339.9 KB2014-07-07 18:596
en-ZA.xpi331.7 KB2014-07-07 18:590
eo.xpi355.8 KB2014-07-07 18:590
es-AR.xpi354.9 KB2014-07-07 18:592
es-CL.xpi302.3 KB2014-07-07 18:590
br.xpi351.0 KB2014-07-07 18:591
bn-IN.xpi417.0 KB2014-07-07 18:590
bn-BD.xpi420.0 KB2014-07-07 18:591
be.xpi328.5 KB2014-07-07 18:591
bg.xpi392.9 KB2014-07-07 18:593
ast.xpi308.6 KB2014-07-07 18:592
as.xpi407.0 KB2014-07-07 18:592
ar.xpi384.4 KB2014-07-07 18:591
an.xpi360.6 KB2014-07-07 18:590
af.xpi355.9 KB2014-07-07 18:591
ach.xpi361.2 KB2014-07-07 18:593
Waterfox 32 Setup.exe45.6 MB2014-09-06 00:18247
Waterfox 30.0 Setup.exe36.5 MB2014-07-09 22:28109
Waterfox 28.032.4 MB2014-04-08 00:152530
Waterfox 27.0.2 Setup.exe28.8 MB2014-03-05 22:31680
Waterfox 27.0.1 Setup.exe28.8 MB2014-02-21 20:29300
experimental
Waterfox 27.0.1 Setup.exe28.8 MB2014-02-20 07:0510
Waterfox 27.0 Test.zip33.5 MB2014-02-14 05:4418
SpiderMonkey 24-b5 ICC.zip22.9 MB2013-09-18 01:4725
Waterfox 24 Preview 1.7z27.0 MB2013-09-12 00:36122
portable
Waterfox 26.0 Portable.zip44.6 MB2013-12-26 22:15276
Waterfox 18.0.1 Portable.zip39.4 MB2013-01-20 08:13216
Waterfox 26.0 Setup.exe32.9 MB2013-12-26 22:11651
Waterfox 24.0 Setup.exe24.6 MB2013-10-07 19:151269